Weather History for Richmond, KY

Change the Weather History Date:

Wednesday, October 2, 2013

  Actual Average (KLOZ) Record (KLOZ)
Temperature  
Mean Temperature 70 °F 62 °F  
Max Temperature 82 °F 74 °F 85 °F (2007)
Min Temperature 59 °F 50 °F 31 °F (1974)
Degree Days  
Heating Degree Days 0 5  
Month to date heating degree days 9  
Since 1 July heating degree days 56  
Cooling Degree Days 6 2  
Month to date cooling degree days 4  
Year to date cooling degree days 1171  
Growing Degree Days 20 (Base 50)    
Moisture  
Dew Point 63 °F    
Average Humidity 78    
Maximum Humidity 94    
Minimum Humidity 54    
Precipitation  
Precipitation 0.00 in 0.09 in 0.59 in (1996)
Month to date precipitation 0.19  
Year to date precipitation 36.24  
Sea Level Pressure  
Sea Level Pressure 30.11 in    
Wind  
Wind Speed 3 mph (SSW)    
Max Wind Speed 9 mph    
Max Gust Speed -    
Visibility 10 miles    
Events      
T = Trace of Precipitation, MM = Missing Value Source: NWS Daily Summary

Daily Weather History Graph

Daily Weather History Graph

Search for Another Location

Airport:

Trip Planner

Search our weather history database for the weather conditions in past years. The results will help you decide how hot, cold, wet, or windy it might be!

Date:

Astronomy

Oct. 02, 2013 Rise Set
Actual Time 7:33 AM EDT 7:18 PM EDT
Civil Twilight 7:07 AM EDT 7:44 PM EDT
Nautical Twilight 6:37 AM EDT 8:14 PM EDT
Astronomical Twilight 6:06 AM EDT 8:45 PM EDT
Moon 5:08 AM EDT (10/2) 5:52 PM EDT (10/2)
Length of Visible Light 12h 36m
Length of Day
11h 44m
Waning Crescent, 6% of the Moon is Illuminated
Oct 2
Waning Crescent
Oct 4
New
Oct 11
First Quarter
Oct 18
Full
Oct 26
Last Quarter

Hourly Weather History & Observations

Time (EDT) Temp. Heat Index Dew Point Humidity Pressure Visibility Wind Dir Wind Speed Gust Speed Precip Events Conditions
12:15 AM 64.4 °F - 59.0 °F 83% 30.10 in 10.0 mi South 4.6 mph - N/A   Clear
12:35 AM 64.4 °F - 59.0 °F 83% 30.11 in 10.0 mi South 4.6 mph - N/A   Clear
12:55 AM 64.4 °F - 59.0 °F 83% 30.11 in 10.0 mi South 4.6 mph - N/A   Clear
1:15 AM 64.4 °F - 59.0 °F 83% 30.10 in 10.0 mi South 4.6 mph - N/A   Clear
1:35 AM 64.4 °F - 59.0 °F 83% 30.11 in 10.0 mi South 3.5 mph - N/A   Clear
1:55 AM 62.6 °F - 59.0 °F 88% 30.11 in 10.0 mi South 5.8 mph - N/A   Clear
2:15 AM 62.6 °F - 59.0 °F 88% 30.11 in 10.0 mi South 4.6 mph - N/A   Clear
2:35 AM 62.6 °F - 59.0 °F 88% 30.11 in 10.0 mi SSW 4.6 mph - N/A   Clear
2:55 AM 62.6 °F - 59.0 °F 88% 30.11 in 10.0 mi South 4.6 mph - N/A   Clear
3:15 AM 60.8 °F - 57.2 °F 88% 30.10 in 10.0 mi South 3.5 mph - N/A   Clear
3:35 AM 60.8 °F - 59.0 °F 94% 30.10 in 10.0 mi South 4.6 mph - N/A   Clear
3:55 AM 62.6 °F - 59.0 °F 88% 30.10 in 10.0 mi South 4.6 mph - N/A   Clear
4:15 AM 62.6 °F - 59.0 °F 88% 30.10 in 10.0 mi SSW 3.5 mph - N/A   Clear
4:35 AM 60.8 °F - 57.2 °F 88% 30.10 in 10.0 mi South 3.5 mph - N/A   Clear
4:55 AM 60.8 °F - 57.2 °F 88% 30.10 in 10.0 mi Calm Calm - N/A   Clear
5:15 AM 60.8 °F - 59.0 °F 94% 30.10 in 10.0 mi Calm Calm - N/A   Clear
5:35 AM 60.8 °F - 59.0 °F 94% 30.11 in 10.0 mi Calm Calm - N/A   Clear
5:55 AM 59.0 °F - 57.2 °F 94% 30.11 in 7.0 mi Calm Calm - N/A   Clear
6:15 AM 60.8 °F - 59.0 °F 94% 30.12 in 10.0 mi Calm Calm - N/A   Mostly Cloudy
6:35 AM 60.8 °F - 59.0 °F 94% 30.13 in 10.0 mi Calm Calm - N/A   Overcast
6:55 AM 60.8 °F - 59.0 °F 94% 30.13 in 10.0 mi Calm Calm - N/A   Mostly Cloudy
7:15 AM 59.0 °F - 57.2 °F 94% 30.13 in 10.0 mi Calm Calm - N/A   Scattered Clouds
7:35 AM 60.8 °F - 59.0 °F 94% 30.14 in 10.0 mi Calm Calm - N/A   Mostly Cloudy
7:55 AM 60.8 °F - 59.0 °F 94% 30.14 in 10.0 mi Calm Calm - N/A   Mostly Cloudy
8:15 AM 62.6 °F - 59.0 °F 88% 30.15 in 10.0 mi Calm Calm - N/A   Mostly Cloudy
8:35 AM 62.6 °F - 59.0 °F 88% 30.15 in 10.0 mi Calm Calm - N/A   Overcast
8:55 AM 62.6 °F - 59.0 °F 88% 30.15 in 10.0 mi Calm Calm - N/A   Scattered Clouds
9:15 AM 64.4 °F - 60.8 °F 88% 30.16 in 10.0 mi Calm Calm - N/A   Clear
9:35 AM 68.0 °F - 62.6 °F 83% 30.16 in 10.0 mi South 5.8 mph - N/A   Scattered Clouds
9:55 AM 68.0 °F - 62.6 °F 83% 30.16 in 10.0 mi South 5.8 mph - N/A   Mostly Cloudy
10:15 AM 69.8 °F - 62.6 °F 78% 30.16 in 10.0 mi SSE 3.5 mph - N/A   Scattered Clouds
10:35 AM 71.6 °F - 62.6 °F 73% 30.16 in 10.0 mi SSW 3.5 mph - N/A   Clear
10:55 AM 73.4 °F - 62.6 °F 69% 30.16 in 10.0 mi Calm Calm - N/A   Clear
11:15 AM 75.2 °F - 62.6 °F 65% 30.15 in 10.0 mi Calm Calm - N/A   Clear
11:35 AM 77.0 °F - 64.4 °F 65% 30.15 in 10.0 mi Calm Calm - N/A   Scattered Clouds
11:55 AM 77.0 °F - 64.4 °F 65% 30.15 in 10.0 mi Calm Calm - N/A   Scattered Clouds
12:15 PM 78.8 °F - 64.4 °F 61% 30.15 in 10.0 mi SSW 3.5 mph - N/A   Mostly Cloudy
12:35 PM 78.8 °F - 64.4 °F 61% 30.14 in 10.0 mi Calm Calm - N/A   Mostly Cloudy
12:55 PM 80.6 °F 82.3 °F 64.4 °F 58% 30.14 in 10.0 mi South 4.6 mph - N/A   Mostly Cloudy
1:15 PM 78.8 °F - 64.4 °F 61% 30.13 in 10.0 mi SE 3.5 mph - N/A   Mostly Cloudy
1:35 PM 78.8 °F - 64.4 °F 61% 30.13 in 10.0 mi Calm Calm - N/A   Scattered Clouds
1:55 PM 82.4 °F 83.9 °F 64.4 °F 54% 30.12 in 10.0 mi South 5.8 mph - N/A   Mostly Cloudy
2:15 PM 78.8 °F - 64.4 °F 61% 30.10 in 10.0 mi Calm Calm - N/A   Mostly Cloudy
2:35 PM 78.8 °F - 64.4 °F 61% 30.10 in 10.0 mi Calm Calm - N/A   Mostly Cloudy
2:55 PM 80.6 °F 82.3 °F 64.4 °F 58% 30.09 in 10.0 mi NE 3.5 mph - N/A   Overcast
3:15 PM 80.6 °F 82.3 °F 64.4 °F 58% 30.09 in 10.0 mi Calm Calm - N/A   Overcast
3:35 PM 78.8 °F - 64.4 °F 61% 30.09 in 10.0 mi West 5.8 mph - N/A   Overcast
3:55 PM 78.8 °F - 66.2 °F 65% 30.08 in 10.0 mi Calm Calm - N/A   Mostly Cloudy
4:15 PM 80.6 °F 82.3 °F 64.4 °F 58% 30.08 in 10.0 mi Calm Calm - N/A   Scattered Clouds
4:35 PM 80.6 °F 82.3 °F 64.4 °F 58% 30.08 in 10.0 mi Calm Calm - N/A   Mostly Cloudy
4:55 PM 80.6 °F 82.3 °F 64.4 °F 58% 30.08 in 10.0 mi SW 6.9 mph - N/A   Overcast
5:15 PM 80.6 °F 82.7 °F 66.2 °F 61% 30.08 in 10.0 mi WSW 9.2 mph - N/A   Overcast
5:35 PM 78.8 °F - 66.2 °F 65% 30.08 in 10.0 mi WSW 8.1 mph - N/A   Overcast
5:55 PM 78.8 °F - 66.2 °F 65% 30.08 in 10.0 mi SW 5.8 mph - N/A   Overcast
6:15 PM 77.0 °F - 66.2 °F 69% 30.08 in 10.0 mi West 4.6 mph - N/A   Overcast
6:35 PM 75.2 °F - 66.2 °F 73% 30.08 in 10.0 mi West 8.1 mph - N/A   Mostly Cloudy
6:55 PM 73.4 °F - 66.2 °F 78% 30.08 in 10.0 mi West 5.8 mph - N/A   Mostly Cloudy
7:15 PM 73.4 °F - 66.2 °F 78% 30.09 in 10.0 mi West 3.5 mph - N/A   Overcast
7:35 PM 73.4 °F - 66.2 °F 78% 30.10 in 10.0 mi WSW 4.6 mph - N/A   Overcast
7:55 PM 73.4 °F - 66.2 °F 78% 30.10 in 10.0 mi WSW 4.6 mph - N/A   Overcast
8:15 PM 71.6 °F - 66.2 °F 83% 30.10 in 10.0 mi WSW 4.6 mph - N/A   Overcast
8:35 PM 71.6 °F - 66.2 °F 83% 30.10 in 10.0 mi Calm Calm - N/A   Overcast
8:55 PM 71.6 °F - 66.2 °F 83% 30.10 in 10.0 mi Calm Calm - N/A   Overcast
9:15 PM 69.8 °F - 66.2 °F 88% 30.10 in 10.0 mi Calm Calm - N/A   Overcast
9:35 PM 71.6 °F - 66.2 °F 83% 30.10 in 10.0 mi Calm Calm - N/A   Overcast
9:55 PM 71.6 °F - 66.2 °F 83% 30.10 in 7.0 mi Calm Calm - N/A   Overcast
10:15 PM 71.6 °F - 66.2 °F 83% 30.11 in 7.0 mi Calm Calm - N/A   Overcast
10:35 PM 69.8 °F - 66.2 °F 88% 30.11 in 10.0 mi Calm Calm - N/A   Scattered Clouds
10:55 PM 69.8 °F - 66.2 °F 88% 30.11 in 10.0 mi Calm Calm - N/A   Mostly Cloudy
11:15 PM 69.8 °F - 66.2 °F 88% 30.12 in 7.0 mi Calm Calm - N/A   Overcast
11:35 PM 69.8 °F - 66.2 °F 88% 30.12 in 7.0 mi South 4.6 mph - N/A   Overcast
11:55 PM 69.8 °F - 66.2 °F 88% 30.12 in 7.0 mi Calm Calm - N/A   Overcast